AOR-E (EGNOS/PRN 120) 1 24307U 96053A 10071.08989713 -.00000134 00000-0 10000-3 0 1426 2 24307 0.1025 311.5812 0005334 34.3985 200.4721 1.00272636 49471 IOR-W (EGNOS/PRN 126) 1 25153U 98006B 10073.73337106 .00000136 00000-0 10000-3 0 9961 2 25153 0.4939 358.3574 0003062 9.3347 93.2600 1.00273105 44383 ARTEMIS (EGNOS/PRN 124) 1 26863U 01029A 10072.08703169 .00000122 00000-0 10000-3 0 8540 2 26863 8.0946 65.4153 0004972 310.7308 207.1511 1.00274152 32848 MTSAT-1R (MSAS/PRN 129) 1 28622U 05006A 10070.30913491 .00000000 00000-0 10000-3 0 3403 2 28622 0.0296 8.4856 0000869 161.2050 250.4789 1.00266441 18433 IOR (GAGAN/PRN 127) 1 28628U 05009A 10070.04773912 .00000000 00000-0 10000-3 0 2460 2 28628 2.3392 329.2157 0003097 23.0445 336.9784 1.00265891 18105 ANIK F1R (WAAS/PRN 138) 1 28868U 05036A 10070.55499071 -.00000086 00000-0 00000+0 0 7615 2 28868 0.0147 62.3238 0001447 347.6131 211.6075 1.00271999 16570 GALAXY 15 (WAAS/PRN 135) 1 28884U 05041A 10073.51011341 .00000074 00000-0 10000-3 0 7822 2 28884 0.0208 272.4865 0002389 78.2854 231.8667 1.00273930 16197 MTSAT-2 (MSAS/PRN 137) 1 28937U 06004A 10073.56951704 -.00000248 00000-0 10000-3 0 7163 2 28937 0.0637 82.7593 0003463 264.7588 174.5236 1.00268245 14941